Date String (YYYY-MM-DD hh:mm:ss) UTC,Instrument flags,absolute air pressure of the measurement (hPa),sample flow rate (lpm),inlet stack bypass flow (lpm),air temperature of the measurement (°C),ambient temperature measured by the external sensor (°C),aerosol sample conditioner tube jacket temperature (°C),OPC LED temperature (°C),internal box temperature (°C),relative humidity of the measurement (%),span deviation,mass concentration of particles derived from Lorenz-Mie calculation of OPC scattering (μg/m³),mass concentration of particles derived from Lorenz-Mie calculation of OPC scattering (μg/m³),mass concentration of particles derived from Lorenz-Mie calculation of OPC scattering (μg/m³)
DateTimeUTC,F1_M11,P_M11,Q1_M11,Q2_M11,T1_M11,T2_M11,T3_M11,T4_M11,T5_M11,U1_M11,ZSPAN_M11,X0_M11,X2_M11,X1_M11
2024-03-21 12:00:00,SystemResetWarning,0825.6,5.00,000.00,020.7,019.9,000.0,029.3,022.5,17.7,0003.6,0013.45,0006.32,0005.65
2024-03-21 12:01:00,SystemResetWarning,0825.6,5.00,000.00,020.7,019.9,000.0,029.3,022.5,17.7,0003.5,0011.99,0006.30,0005.65
2024-03-21 12:02:00,SystemResetWarning,0825.6,5.01,000.00,020.7,019.9,000.0,029.3,022.5,17.7,0004.2,0012.00,0006.30,0005.64
2024-03-21 12:03:00,SystemResetWarning,0825.6,5.01,000.00,020.7,019.9,000.0,029.3,022.5,17.6,0004.8,0011.79,0006.27,0005.64
2024-03-21 12:04:00,SystemResetWarning,0825.6,5.00,000.00,020.7,019.9,000.0,029.3,022.5,17.6,0004.7,0011.48,0006.22,0005.62
2024-03-21 12:05:00,SystemResetWarning,0825.6,4.99,000.00,020.7,019.9,000.0,029.3,022.5,17.6,0004.3,0011.48,0006.19,0005.59
2024-03-21 12:06:00,SystemResetWarning,0825.7,4.99,000.00,020.6,019.9,000.0,029.3,022.5,17.6,0004.3,0012.43,0006.20,0005.57
2024-03-21 12:07:00,SystemResetWarning,0825.7,5.00,000.00,020.6,019.9,000.0,029.3,022.4,17.6,0004.3,0013.45,0006.17,0005.54
2024-03-21 12:08:00,SystemResetWarning,0825.6,5.01,000.00,020.6,019.9,000.0,029.3,022.4,17.5,0004.0,0013.16,0006.16,0005.52
2024-03-21 12:09:00,SystemResetWarning,0825.6,5.00,000.00,020.6,019.9,000.0,029.3,022.4,17.5,0004.0,0013.86,0006.18,0005.49
2024-03-21 12:10:00,SystemResetWarning,0825.6,5.01,000.00,020.6,019.9,000.0,029.2,022.4,17.5,0003.3,0015.29,0006.22,0005.47
2024-03-21 12:11:00,SystemResetWarning,0825.6,4.99,000.00,020.6,019.8,000.0,029.2,022.4,17.4,0002.4,0015.34,0006.20,0005.42
2024-03-21 12:12:00,SystemResetWarning,0825.6,5.00,000.00,020.6,019.8,000.0,029.2,022.4,17.4,0002.4,0015.48,0006.17,0005.36
2024-03-21 12:13:00,SystemResetWarning,0825.6,5.00,000.00,020.6,019.8,000.0,029.2,022.4,17.4,0001.9,0015.32,0006.12,0005.32
2024-03-21 12:14:00,SystemResetWarning,0825.6,5.00,000.00,020.6,019.8,000.0,029.2,022.4,17.4,0000.8,0015.08,0006.10,0005.26
2024-03-21 12:15:00,SystemResetWarning,0825.6,5.00,000.00,020.6,019.8,000.0,029.2,022.4,17.3,0000.5,0014.64,0006.06,0005.22
2024-03-21 12:16:00,SystemResetWarning,0825.6,5.00,000.00,020.6,019.7,000.0,029.2,022.4,17.3,0000.4,0014.57,0006.03,0005.18
2024-03-21 12:17:00,SystemResetWarning,0825.6,5.01,000.00,020.6,019.7,000.0,029.2,022.4,17.2,0000.1,0014.12,0005.96,0005.13
2024-03-21 12:18:00,SystemResetWarning,0825.6,5.00,000.00,020.6,019.7,000.0,029.2,022.3,17.2,0000.3,0012.89,0005.94,0005.07
2024-03-21 12:19:00,SystemResetWarning,0825.6,5.00,000.00,020.5,019.7,000.0,029.2,022.3,17.2,0000.9,0012.88,0005.89,0005.01
2024-03-21 12:20:00,SystemResetWarning,0825.6,4.99,000.00,020.5,019.7,000.0,029.2,022.3,17.4,0000.0,0012.69,0005.79,0004.95
2024-03-21 12:21:00,SystemResetWarning,0825.6,5.00,000.00,020.5,019.7,000.0,029.2,022.3,17.3,0000.0,0011.92,0005.73,0004.90
2024-03-21 12:22:00,SystemResetWarning,0825.6,5.01,000.00,020.5,019.7,000.0,029.2,022.3,17.3,0000.0,0012.21,0005.70,0004.86
2024-03-21 12:23:00,SystemResetWarning,0825.6,5.01,000.00,020.5,019.7,000.0,029.2,022.3,17.3,0000.0,0012.21,0005.70,0004.83
2024-03-21 12:24:00,SystemResetWarning,0825.6,5.01,000.00,020.5,019.7,000.0,029.2,022.3,17.3,0000.0,0013.41,0005.65,0004.78
2024-03-21 12:25:00,SystemResetWarning,0825.7,5.00,000.00,020.5,019.7,000.0,029.2,022.3,17.4,0000.0,0013.75,0005.59,0004.73
2024-03-21 12:26:00,SystemResetWarning,0825.6,5.00,000.00,020.5,019.7,000.0,029.1,022.3,17.6,0000.0,0014.35,0005.57,0004.72
2024-03-21 12:27:00,SystemResetWarning,0825.6,5.00,000.00,020.5,019.7,000.0,029.1,022.3,17.7,0000.0,0014.43,0005.57,0004.73
2024-03-21 12:28:00,SystemResetWarning,0825.6,5.00,000.00,020.5,019.7,000.0,029.1,022.3,17.7,0000.0,0013.95,0005.55,0004.74
2024-03-21 12:29:00,SystemResetWarning,0825.6,5.01,000.00,020.5,019.7,000.0,029.1,022.3,17.6,0000.0,0013.92,0005.56,0004.76
2024-03-21 12:30:00,SystemResetWarning,0825.6,5.01,000.00,020.5,019.7,000.0,029.1,022.3,17.4,0000.0,0013.76,0005.59,0004.78
2024-03-21 12:31:00,SystemResetWarning,0825.6,5.01,000.00,020.5,019.7,000.0,029.1,022.3,17.2,0000.0,0013.04,0005.55,0004.73
2024-03-21 12:32:00,SystemResetWarning,0825.7,5.00,000.00,020.5,019.7,000.0,029.1,022.3,17.2,0000.0,0012.36,0005.46,0004.67
2024-03-21 12:33:00,SystemResetWarning,0825.7,5.00,000.00,020.5,019.7,000.0,029.1,022.3,17.3,0000.0,0011.90,0005.36,0004.62
2024-03-21 12:34:00,SystemResetWarning,0825.7,4.99,000.00,020.5,019.6,000.0,029.1,022.3,17.5,0000.0,0012.17,0005.33,0004.61
2024-03-21 12:35:00,SystemResetWarning,0825.7,5.01,000.00,020.5,019.6,000.0,029.1,022.3,17.5,0000.0,0011.03,0005.34,0004.62
2024-03-21 12:36:00,SystemResetWarning,0825.8,5.01,000.00,020.5,019.7,000.0,029.1,022.3,17.4,0000.0,0010.59,0005.31,0004.61
2024-03-21 12:37:00,SystemResetWarning,0825.8,4.99,000.00,020.5,019.7,000.0,029.1,022.3,17.4,0000.0,0010.37,0005.24,0004.55
2024-03-21 12:38:00,SystemResetWarning,0825.8,4.99,000.00,020.5,019.7,000.0,029.1,022.2,17.5,0000.0,0010.93,0005.16,0004.48
2024-03-21 12:39:00,SystemResetWarning,0825.7,5.01,000.00,020.4,019.6,000.0,029.1,022.2,17.5,0000.0,0010.79,0005.11,0004.42
2024-03-21 12:40:00,SystemResetWarning,0825.6,5.01,000.00,020.4,019.6,000.0,029.1,022.2,17.6,0000.0,0011.06,0005.04,0004.38
2024-03-21 12:41:00,SystemResetWarning,0825.7,5.01,000.00,020.4,019.6,000.0,029.1,022.2,17.7,0000.0,0011.47,0004.97,0004.35
2024-03-21 12:42:00,SystemResetWarning,0825.7,5.00,000.00,020.4,019.6,000.0,029.1,022.2,17.7,0000.0,0011.52,0004.94,0004.37
2024-03-21 12:43:00,SystemResetWarning,0825.8,4.99,000.00,020.4,019.6,000.0,029.1,022.2,17.6,0000.0,0012.44,0004.96,0004.38
2024-03-21 12:44:00,SystemResetWarning,0825.8,4.99,000.00,020.4,019.5,000.0,029.1,022.2,17.6,0000.0,0013.15,0004.97,0004.39
2024-03-21 12:45:00,SystemResetWarning,0825.7,5.00,000.00,020.4,019.5,000.0,029.0,022.2,17.6,0000.4,0013.90,0004.91,0004.37
2024-03-21 12:46:00,SystemResetWarning,0825.7,5.01,000.00,020.4,019.5,000.0,029.0,022.2,17.6,0000.0,0013.92,0004.87,0004.33
2024-03-21 12:47:00,SystemResetWarning,0825.7,5.01,000.00,020.4,019.5,000.0,029.0,022.1,17.5,0000.0,0014.45,0004.87,0004.32
2024-03-21 12:48:00,SystemResetWarning,0825.7,5.00,000.00,020.3,019.5,000.0,029.0,022.1,17.5,0000.0,0014.29,0004.87,0004.32
2024-03-21 12:49:00,SystemResetWarning,0825.6,4.99,000.00,020.3,019.5,000.0,029.0,022.1,17.6,0000.0,0013.59,0004.87,0004.32
2024-03-21 12:50:00,SystemResetWarning,0825.7,5.01,000.00,020.3,019.5,000.0,029.0,022.1,17.7,0000.0,0013.88,0004.87,0004.33
2024-03-21 12:51:00,SystemResetWarning,0825.8,5.01,000.00,020.3,019.5,000.0,029.0,022.1,17.8,0000.0,0014.03,0004.92,0004.35
2024-03-21 12:52:00,SystemResetWarning,0825.8,5.01,000.00,020.3,019.5,000.0,029.0,022.1,17.9,0000.0,0014.10,0004.99,0004.38
2024-03-21 12:53:00,SystemResetWarning,0825.8,5.00,000.00,020.3,019.5,000.0,029.0,022.1,17.9,0000.0,0014.05,0005.07,0004.41
2024-03-21 12:54:00,SystemResetWarning,0825.8,4.99,000.00,020.3,019.5,000.0,029.0,022.1,17.7,0000.0,0013.24,0005.13,0004.43
2024-03-21 12:55:00,SystemResetWarning,0825.8,5.00,000.00,020.3,019.5,000.0,029.0,022.1,17.8,0000.0,0013.03,0005.17,0004.45
2024-03-21 12:56:00,SystemResetWarning,0825.8,5.01,000.00,020.3,019.4,000.0,028.9,022.1,17.7,0000.0,0012.08,0005.19,0004.46
2024-03-21 12:57:00,SystemResetWarning,0825.8,5.01,000.00,020.3,019.4,000.0,028.9,022.1,17.8,0000.0,0012.18,0005.22,0004.49
2024-03-21 12:58:00,SystemResetWarning,0825.8,5.00,000.00,020.3,019.4,000.0,028.9,022.1,18.0,0000.0,0011.76,0005.25,0004.55
2024-03-21 12:59:00,SystemResetWarning,0825.8,5.00,000.00,020.3,019.4,000.0,028.9,022.1,18.0,0000.0,0012.50,0005.33,0004.62
